CAPE
0 0 0 0 0 0 0 0 0 0 0 0 0 0 0 0 0 0 0 37 37 0 0 0 0 0 0 0 0 0 0 0 0 0 0 0 0 0 0 0 0 0 0 0 0 0 0 0 0
0 0 0 0 0 0 0 0 0 19 7 0 0 0 0 0 0 0 0 59 1 0 0 0 0 0 0 0 0 0 0 0 0 0 0 0 0 0 0 0 0 0 0 0 0 0 0 0 0
0 0 0 0 0 0 0 0 1 1 4 0 0 0 0 0 0 0 0 99 22 0 0 0 0 0 0 0 0 0 0 0 0 0 0 0 0 0 0 0 0 0 0 0 14 17 12 0 1
0 0 0 0 0 0 0 0 0 0 0 0 0 0 0 0 0 0 22 58 56 0 0 0 0 0 0 0 0 0 0 0 0 0 0 0 0 0 0 0 0 0 1 41 109 158 170 137 51
0 0 0 0 0 0 0 0 11 1 1 0 0 0 0 0 1 2 2 27 3 57 0 0 0 0 0 0 0 0 0 0 0 0 0 0 0 0 0 1 6 80 186 273 316 313 245 268 251
0 0 0 0 0 0 0 0 60 15 1 16 0 0 0 0 0 5 1 0 0 17 31 0 0 0 0 0 0 0 0 0 0 0 0 0 1 0 17 32 82 208 454 530 294 284 151 145 192
0 0 0 0 0 0 0 0 0 0 0 0 0 0 0 0 0 0 0 0 0 6 0 85 7 0 0 0 6 0 0 0 0 0 9 8 27 0 16 74 123 368 729 467 313 124 47 37 64
0 0 0 0 0 0 0 0 0 0 0 0 0 0 0 0 0 0 0 0 0 31 46 98 106 27 0 0 9 21 4 0 11 29 44 68 84 81 103 97 146 396 592 452 259 64 46 17 20
1 0 0 0 0 0 0 0 0 0 0 0 0 0 0 0 0 0 0 1 7 13 129 181 150 161 16 0 106 45 44 32 42 68 105 200 186 189 162 150 247 483 640 501 212 168 136 52 38
10 0 0 0 0 0 0 0 0 0 0 0 0 0 0 0 0 0 0 0 0 0 197 183 202 202 232 155 128 169 136 224 221 212 217 356 166 136 134 316 607 847 882 673 265 294 192 114 13
0 0 0 0 0 0 0 0 0 0 0 0 0 0 0 0 0 0 0 0 0 0 8 426 304 305 319 404 379 352 235 293 389 270 277 341 218 139 361 423 485 757 836 541 341 260 267 33 0
0 0 0 0 0 0 0 0 0 0 0 0 0 0 0 0 0 0 0 0 0 0 0 54 500 464 507 609 475 544 385 356 232 289 294 255 288 476 599 596 431 387 436 203 135 206 224 50 35
0 0 0 0 0 0 0 0 0 0 0 0 0 0 0 0 0 0 0 0 0 0 0 0 168 571 665 648 474 677 641 621 504 464 375 366 603 812 829 410 112 342 306 260 295 267 188 82 21
0 0 0 0 0 0 0 0 0 0 0 0 0 0 0 0 0 0 0 0 0 0 0 0 36 285 627 675 490 746 844 848 701 736 674 660 766 889 657 435 419 518 381 146 91 133 53 1 0
0 0 0 0 0 0 0 0 0 0 0 0 0 0 0 0 0 0 0 0 0 0 0 0 0 105 373 653 600 845 992 1010 971 831 905 1055 1161 893 600 425 527 579 457 346 154 76 96 71 2
0 0 0 0 0 0 0 0 0 0 0 0 0 0 0 0 0 0 0 0 6 0 0 0 110 225 644 664 1198 1001 1017 1089 950 864 1053 1154 966 598 321 474 506 484 389 279 173 82 50 47 44
0 0 0 0 0 0 0 0 0 0 0 0 0 0 0 0 0 0 0 0 0 0 0 0 148 289 796 1019 950 1366 1192 838 687 279 334 464 282 310 436 594 584 541 464 364 297 174 55 19 33
0 0 0 0 0 0 0 0 0 0 0 0 0 0 0 0 0 0 0 0 0 2 53 85 295 708 1204 1430 1367 1163 1144 837 350 276 160 282 339 430 540 558 536 506 451 322 191 114 53 48 21
0 0 0 0 0 0 0 0 0 0 0 0 0 0 0 0 0 0 0 0 0 24 132 337 665 1126 1462 1519 1478 1164 960 618 455 177 171 319 373 542 637 647 589 675 555 341 192 171 63 3 5
0 0 0 0 0 0 0 0 0 0 0 0 0 0 0 0 0 0 0 0 13 23 289 523 951 1365 1584 1495 1409 1226 932 493 328 237 176 296 550 539 488 356 404 351 329 292 188 124 60 0 6
0 0 0 0 0 0 0 0 0 0 0 0 0 0 0 0 0 0 0 0 40 148 381 591 1005 1603 1630 1481 1213 968 489 350 238 170 199 388 403 432 393 386 322 294 313 171 123 91 64 7 2
0 0 0 0 0 0 0 0 0 0 0 0 0 0 0 0 0 0 0 0 149 339 470 601 1053 1331 1318 1210 898 651 388 350 232 262 327 525 464 502 409 348 246 241 112 104 156 129 116 73 27
0 0 0 0 0 0 0 0 0 0 0 0 0 0 0 0 0 0 0 13 386 431 543 989 1198 1197 940 736 600 407 169 147 221 273 269 497 502 438 296 333 274 221 147 73 60 89 84 90 59
0 0 0 0 0 0 0 0 0 0 0 0 0 0 0 0 0 0 145 377 460 611 820 974 938 908 779 450 352 159 171 346 118 294 306 292 268 328 408 397 221 204 83 41 73 92 98 61 75
0 0 0 0 0 0 0 0 0 0 0 0 0 0 0 0 0 96 245 393 549 707 802 791 694 732 490 619 280 290 244 174 309 346 339 330 318 247 403 240 112 38 59 124 114 76 35 80 90
0 0 0 0 0 0 0 0 0 0 0 0 0 0 0 0 75 198 373 458 603 751 735 575 726 475 378 396 292 341 258 119 409 346 325 383 195 256 141 34 50 134 240 193 24 27 24 92 54
0 0 0 0 0 0 0 0 0 0 0 0 0 0 26 143 225 342 412 504 657 720 637 714 592 380 423 315 241 274 300 440 264 216 263 188 288 0 5 13 106 239 188 61 27 32 95 113 23
0 0 0 0 0 0 0 0 0 0 0 0 0 2 221 304 355 373 366 597 662 639 626 666 484 328 397 310 186 254 317 288 337 194 40 148 102 114 10 195 287 199 140 107 103 54 44 26 10
0 0 0 0 0 0 0 0 0 0 0 0 0 23 269 292 340 303 486 597 576 602 546 539 416 346 329 201 151 171 170 167 168 133 95 82 64 43 134 236 222 113 157 157 14 44 48 12 15
0 0 0 0 0 0 0 0 0 0 0 0 1 139 300 280 323 373 480 516 501 499 483 418 314 231 246 149 231 126 197 202 51 87 52 0 13 1 1 90 138 117 100 44 23 1 8 40 10
CIN
-0 -0 -0 -0 -0 -0 -0 -0 -0 -0 -0 -0 -0 -0 -0 -0 -0 -0 -0 -263 -277 -0 -0 -0 -0 -0 -0 -0 -0 -0 -0 -0 -0 -0 -0 -0 -0 -0 -0 -0 -0 -0 -0 -0 -0 -0 -0 -0 -0
-0 -0 -0 -0 -0 -0 -0 -0 -0 -51 -54 -0 -0 -0 -0 -0 -0 -0 -0 -247 -104 -0 -0 -0 -0 -0 -0 -0 -0 -0 -0 -0 -0 -0 -0 -0 -0 -0 -0 -0 -0 -0 -0 -0 -0 -0 -0 -0 -0
-0 -0 -0 -0 -0 -0 -0 -0 -76 -3 -44 -1 -0 -0 -0 -0 -0 -0 -0 -238 -279 -0 -0 -0 -0 -0 -0 -0 -0 -0 -0 -0 -0 -0 -0 -0 -0 -0 -0 -0 -0 -0 -0 -0 -58 -94 -107 -0 -0
-0 -0 -0 -0 -0 -0 -0 -0 -0 -0 -0 -0 -0 -0 -0 -0 -0 -0 -181 -225 -301 -0 -0 -0 -0 -0 -0 -0 -0 -0 -0 -0 -0 -0 -0 -0 -0 -0 -0 -0 -0 -0 -8 -79 -39 -30 -34 -48 -66
-0 -0 -0 -0 -0 -0 -0 -0 -14 -6 -99 -0 -0 -0 -0 -0 -88 -26 -103 -226 -171 -377 -32 -0 -0 -0 -0 -0 -0 -0 -0 -0 -0 -0 -0 -0 -0 -0 -0 -58 -64 -186 -92 -27 -2 -0 -13 -15 -15
-0 -0 -0 -0 -0 -0 -0 -0 -15 -44 -0 -0 -0 -0 -0 -0 -0 -94 -15 -0 -0 -233 -394 -0 -0 -0 -0 -19 -0 -0 -0 -0 -0 -0 -0 -0 -120 -0 -382 -331 -253 -146 -38 -14 -27 -11 -59 -94 -49
-0 -0 -0 -0 -0 -0 -0 -0 -0 -0 -0 -0 -0 -0 -0 -0 -0 -0 -21 -0 -0 -141 -0 -336 -256 -0 -0 -0 -621 -0 -0 -0 -0 -0 -408 -374 -442 -0 -385 -316 -261 -128 -23 -45 -58 -141 -232 -234 -216
-0 -0 -0 -0 -0 -0 -0 -0 -0 -0 -0 -0 -0 -0 -0 -0 -0 -0 -0 -0 -0 -185 -224 -308 -399 -483 -0 -0 -617 -606 -632 -0 -576 -541 -476 -432 -398 -393 -352 -311 -271 -154 -103 -73 -97 -220 -275 -336 -305
-59 -0 -0 -0 -0 -0 -0 -0 -0 -0 -0 -0 -0 -0 -0 -0 -12 -0 -6 -10 -83 -170 -230 -311 -337 -433 -237 -0 -579 -597 -577 -568 -546 -504 -436 -379 -388 -366 -352 -330 -246 -162 -111 -122 -155 -133 -140 -260 -267
-139 -0 -0 -0 -0 -0 -0 -0 -0 -0 -0 -0 -0 -0 -0 -0 -0 -0 -0 -0 -0 -0 -199 -277 -308 -365 -502 -506 -573 -583 -560 -516 -509 -475 -428 -349 -393 -415 -352 -257 -171 -126 -79 -99 -152 -102 -108 -136 -285
-0 -0 -0 -0 -0 -0 -0 -0 -0 -0 -0 -0 -0 -0 -0 -0 -0 -0 -0 -0 -0 -0 -130 -226 -243 -324 -375 -427 -524 -574 -573 -546 -501 -494 -454 -374 -369 -380 -237 -198 -160 -101 -73 -116 -119 -118 -96 -222 -0
-0 -0 -0 -0 -0 -0 -0 -0 -0 -0 -0 -0 -0 -0 -0 -0 -0 -0 -0 -0 -0 -0 -0 -148 -240 -255 -319 -370 -466 -509 -514 -532 -537 -504 -477 -430 -354 -229 -132 -100 -157 -173 -156 -187 -170 -134 -125 -171 -187
-0 -0 -0 -0 -0 -0 -0 -0 -0 -0 -0 -0 -0 -0 -0 -0 -0 -0 -0 -0 -0 -0 -0 -0 -209 -211 -246 -293 -385 -422 -420 -445 -451 -429 -440 -399 -265 -135 -91 -149 -209 -156 -157 -125 -73 -60 -74 -115 -143
-0 -0 -0 -0 -0 -0 -0 -0 -0 -0 -0 -0 -0 -0 -0 -0 -0 -0 -0 -0 -0 -0 -0 -0 -155 -174 -228 -266 -318 -313 -356 -365 -378 -342 -346 -315 -205 -95 -114 -126 -108 -104 -116 -109 -63 -26 -71 -86 -0
-0 -0 -0 -0 -0 -0 -0 -0 -0 -0 -0 -0 -0 -0 -0 -0 -0 -0 -0 -0 -0 -0 -0 -0 -0 -187 -181 -211 -261 -241 -247 -254 -273 -281 -280 -222 -122 -92 -109 -113 -54 -44 -65 -60 -64 -35 -25 -31 -11
-0 -0 -0 -0 -0 -0 -0 -0 -0 -0 -0 -0 -0 -0 -0 -0 -0 -0 -0 -0 -49 -0 -0 -0 -113 -137 -169 -186 -175 -186 -174 -169 -207 -223 -174 -128 -116 -132 -149 -91 -55 -37 -56 -57 -41 -30 -24 -30 -19
-0 -0 -0 -0 -0 -0 -0 -0 -0 -0 -0 -0 -0 -0 -0 -0 -0 -0 -0 -0 -0 -0 -0 -0 -148 -152 -169 -191 -182 -131 -131 -157 -176 -246 -225 -188 -219 -177 -121 -67 -36 -21 -24 -27 -23 -21 -28 -34 -30
-0 -0 -0 -0 -0 -0 -0 -0 -0 -0 -0 -0 -0 -0 -0 -0 -0 -0 -0 -0 -0 -60 -98 -99 -131 -175 -210 -219 -198 -161 -157 -208 -263 -248 -269 -180 -154 -119 -85 -55 -39 -21 -22 -25 -26 -26 -32 -29 -44
-0 -0 -0 -0 -0 -0 -0 -0 -0 -0 -0 -0 -0 -0 -0 -0 -0 -0 -0 -0 -20 -129 -131 -125 -163 -218 -235 -228 -222 -197 -210 -265 -239 -251 -220 -158 -127 -69 -40 -22 -19 -20 -20 -21 -28 -25 -28 -43 -36
-0 -0 -0 -0 -0 -0 -0 -0 -0 -0 -0 -0 -0 -0 -0 -0 -0 -0 -0 -0 -97 -118 -144 -171 -213 -231 -245 -255 -223 -195 -221 -260 -244 -224 -193 -118 -53 -32 -27 -21 -27 -33 -27 -32 -36 -25 -26 -0 -18
-0 -0 -0 -0 -0 -0 -0 -0 -0 -0 -0 -0 -0 -0 -0 -0 -0 -0 -0 -0 -144 -140 -192 -247 -279 -220 -226 -212 -204 -194 -266 -250 -231 -200 -157 -90 -57 -33 -34 -25 -26 -30 -22 -29 -22 -14 -22 -9 -14
-0 -0 -0 -0 -0 -0 -0 -0 -0 -0 -0 -0 -0 -0 -0 -0 -0 -0 -0 -0 -144 -220 -334 -342 -311 -241 -232 -210 -223 -230 -242 -206 -181 -131 -100 -43 -35 -33 -45 -45 -38 -31 -46 -45 -25 -22 -24 -20 -20
-0 -0 -0 -0 -0 -0 -0 -0 -0 -0 -0 -0 -0 -0 -0 -0 -0 -0 -0 -200 -249 -350 -363 -373 -302 -268 -291 -270 -249 -246 -223 -172 -109 -80 -58 -38 -41 -52 -55 -34 -33 -35 -38 -46 -44 -35 -35 -32 -34
-0 -0 -0 -0 -0 -0 -0 -0 -0 -0 -0 -0 -0 -0 -0 -0 -0 -0 -195 -253 -313 -384 -405 -374 -340 -295 -289 -311 -265 -248 -163 -90 -123 -68 -46 -50 -54 -35 -25 -21 -33 -28 -38 -39 -20 -15 -16 -22 -39
-0 -0 -0 -0 -0 -0 -0 -0 -0 -0 -0 -0 -0 -0 -0 -0 -0 -214 -200 -267 -347 -388 -408 -390 -371 -311 -319 -223 -238 -170 -144 -136 -74 -42 -41 -38 -36 -43 -24 -38 -39 -60 -40 -17 -18 -15 -39 -34 -32
-0 -0 -0 -0 -0 -0 -0 -0 -0 -0 -0 -0 -0 -0 -0 -0 -189 -187 -257 -312 -383 -399 -399 -412 -323 -338 -309 -242 -205 -146 -131 -146 -37 -40 -34 -27 -44 -34 -56 -76 -60 -24 -7 -6 -39 -47 -48 -45 -47
-0 -0 -0 -0 -0 -0 -0 -0 -0 -0 -0 -0 -0 -0 -138 -168 -178 -207 -297 -354 -396 -386 -388 -333 -326 -332 -257 -209 -187 -145 -116 -28 -31 -30 -38 -38 -28 -23 -137 -73 -35 -9 -8 -27 -46 -34 -38 -33 -55
-0 -0 -0 -0 -0 -0 -0 -0 -0 -0 -0 -0 -0 -18 -150 -170 -185 -256 -305 -358 -372 -357 -342 -305 -308 -295 -200 -171 -180 -124 -73 -34 -19 -32 -71 -30 -42 -36 -111 -20 -9 -19 -32 -31 -23 -22 -35 -50 -82
-0 -0 -0 -0 -0 -0 -0 -0 -0 -0 -0 -0 -0 -122 -168 -185 -215 -261 -328 -349 -340 -330 -325 -290 -266 -224 -173 -176 -184 -131 -86 -56 -36 -38 -36 -43 -48 -73 -24 -17 -20 -35 -38 -18 -35 -39 -27 -69 -61
-0 -0 -0 -0 -0 -0 -0 -0 -0 -0 -0 -0 -7 -147 -187 -199 -228 -277 -326 -336 -335 -316 -294 -268 -229 -200 -167 -174 -108 -120 -54 -38 -62 -45 -67 -7 -107 -14 -17 -41 -20 -34 -49 -46 -55 -55 -48 -24 -33
Wind_Speed
18 16 14 15 14 12 13 15 10 23 16 17 17 19 21 18 16 13 13 13 14 14 14 13 13 13 14 14 15 16 16 17 17 17 18 18 18 18 18 17 16 16 15 15 15 16 17 17 18
16 13 15 15 14 14 16 21 20 14 14 17 25 18 17 18 14 12 11 12 13 13 13 13 12 12 12 13 14 14 15 15 16 16 16 17 17 17 17 17 16 16 15 14 15 16 16 17 17
15 16 15 15 17 14 14 23 21 22 15 17 18 21 15 12 14 12 10 12 13 12 12 12 12 11 11 12 12 13 13 13 14 14 14 15 15 16 16 15 15 16 15 14 14 16 18 17 16
13 15 18 21 22 26 10 26 25 31 30 6 6 14 15 11 11 11 11 10 11 12 11 10 9 9 10 10 10 11 11 12 11 11 12 12 13 14 15 14 14 15 15 16 15 16 19 20 20
15 18 18 18 23 29 33 19 14 15 4 14 6 11 12 14 13 13 10 8 8 9 9 8 8 7 8 8 8 9 9 10 9 8 9 9 10 11 12 13 13 14 14 15 15 17 19 22 24
18 19 22 27 29 31 32 30 9 9 8 2 17 19 12 8 11 11 10 5 4 4 6 7 9 8 7 7 6 7 8 8 7 6 6 6 7 8 10 11 12 12 12 13 14 15 16 19 24
21 27 29 31 34 38 35 30 31 25 27 14 18 13 8 7 9 9 8 7 3 1 2 4 6 8 9 8 6 7 8 8 6 5 4 4 4 6 7 9 10 11 13 12 12 13 13 15 19
21 25 32 30 36 41 34 31 26 26 21 16 15 14 6 6 6 8 9 5 6 1 1 2 3 4 6 6 7 6 8 8 7 5 4 3 2 3 6 7 8 9 11 12 12 12 11 13 14
23 34 40 32 30 30 36 35 27 26 32 26 18 17 17 11 9 10 10 13 7 4 3 4 6 5 6 6 6 7 8 9 7 6 5 3 1 3 4 7 6 7 9 11 12 13 12 14 14
32 37 37 32 34 36 39 36 37 30 27 25 26 26 31 30 21 19 18 19 18 18 7 8 7 7 5 5 6 7 7 8 8 7 6 5 4 3 6 6 6 6 8 10 10 11 12 13 15
37 43 37 43 41 41 44 42 40 38 27 31 27 31 39 36 32 22 21 21 22 21 16 10 9 8 8 8 7 7 8 8 9 9 7 7 6 5 7 9 10 9 9 11 12 12 11 11 12
43 41 38 44 39 43 47 44 45 43 38 35 37 27 26 23 22 22 25 24 27 27 21 11 9 10 11 9 9 8 8 8 9 10 9 8 7 6 7 8 8 10 10 10 12 12 10 9 9
42 42 37 38 37 40 46 50 49 50 45 41 40 44 38 35 35 32 28 26 23 23 20 16 9 10 11 12 12 9 9 7 6 6 8 9 8 7 7 10 12 10 10 10 13 13 13 9 12
43 41 45 41 41 41 45 51 47 46 42 40 43 44 45 40 37 34 28 24 22 20 15 15 11 11 12 15 13 11 9 8 7 6 6 6 6 6 8 11 10 10 10 13 16 14 13 14 17
47 52 52 54 48 50 40 62 35 42 45 50 45 44 44 38 38 35 31 25 23 17 15 15 16 15 15 12 11 11 9 8 7 7 6 6 5 6 10 12 13 13 12 15 16 16 16 17 17
45 48 60 53 47 46 34 69 43 46 47 48 49 49 38 33 32 28 25 26 20 17 18 20 19 15 12 8 7 8 8 7 7 6 5 4 4 6 10 13 14 14 15 16 17 17 17 17 16
41 50 53 56 36 37 35 63 53 48 45 42 38 29 32 26 23 24 29 20 18 21 22 21 17 14 10 5 7 5 4 5 3 3 2 3 4 7 10 13 15 16 17 17 18 17 16 16 18
38 38 41 49 37 36 44 49 62 58 40 44 36 25 24 24 22 21 25 24 20 21 19 19 16 12 8 6 4 7 6 5 4 4 5 4 5 7 11 13 14 16 16 17 17 16 15 16 18
40 43 48 46 43 46 49 45 51 50 36 35 37 31 22 22 20 18 20 20 17 15 15 16 13 10 6 6 5 5 6 4 6 6 6 5 6 8 10 13 15 15 16 17 16 14 15 17 15
46 53 53 47 39 42 46 45 45 41 43 31 23 22 21 23 17 15 20 20 18 15 14 14 13 9 8 6 5 4 3 3 5 6 5 5 4 7 12 14 15 15 14 12 9 11 14 13 10
41 43 47 50 43 51 48 49 49 50 49 45 33 20 29 17 16 16 20 23 17 15 13 14 10 6 6 2 3 4 4 5 5 4 3 4 6 10 13 14 15 13 12 12 11 9 8 9 8
47 39 42 46 41 50 38 55 51 51 51 50 44 42 23 17 18 18 18 16 10 9 8 10 7 5 3 2 3 3 3 4 4 5 6 6 8 10 12 14 14 13 11 9 8 5 5 6 5
53 41 40 44 41 46 48 40 49 23 18 15 30 34 15 12 11 14 13 8 5 3 5 5 4 4 4 4 5 5 5 7 9 8 9 9 10 11 11 12 12 10 9 8 8 9 10 11 6
44 42 46 43 42 48 36 28 49 33 29 27 33 28 20 12 12 13 4 1 1 2 2 3 3 4 5 6 7 6 7 10 8 9 10 10 10 10 10 9 10 10 10 10 10 11 12 12 13
41 41 44 45 43 41 32 33 41 21 10 22 16 13 12 12 15 2 3 2 1 3 2 3 4 5 7 8 8 8 8 10 10 10 11 11 12 11 9 10 11 11 11 12 13 14 14 14 14
43 41 42 42 41 43 38 39 38 38 43 22 13 12 13 12 3 5 5 4 5 5 3 4 8 8 8 8 9 9 10 10 11 11 12 11 11 11 11 13 13 13 15 15 15 15 14 13 14
48 52 43 47 46 38 38 40 48 45 45 29 12 9 8 8 9 9 9 9 8 5 6 9 10 10 8 9 8 9 10 11 11 11 12 12 13 13 13 14 15 16 16 15 14 14 14 13 13
43 42 40 45 47 48 38 40 40 39 33 12 9 3 5 10 12 11 10 9 8 8 12 13 11 10 10 9 9 10 10 10 11 12 12 13 13 13 14 14 15 16 16 15 15 13 13 14 13
37 47 43 42 44 44 42 44 38 44 41 12 6 7 7 11 11 10 10 10 10 10 11 12 11 11 11 10 9 10 11 11 11 12 12 13 13 13 14 15 16 17 17 16 15 15 16 16 15
40 45 46 44 42 45 41 44 28 26 6 6 5 10 11 11 10 12 13 11 10 10 11 11 12 11 11 11 11 11 11 12 12 12 12 11 13 13 16 18 16 16 17 17 16 17 16 15 16
Wind_Direction
274 273 275 277 291 306 319 329 358 255 308 349 350 329 334 353 349 360 81 73 73 78 97 99 98 95 89 84 82 85 82 80 74 65 62 59 55 52 47 42 37 29 21 13 4 352 339 330 322
274 276 282 288 294 294 299 302 327 1 326 339 330 316 341 6 33 54 63 77 78 83 96 97 102 102 96 90 88 90 87 79 73 65 62 58 54 50 45 41 36 27 18 10 360 351 345 332 327
272 277 286 287 284 289 308 302 336 323 343 338 331 323 343 22 48 51 85 85 76 77 96 100 107 104 106 100 94 97 95 85 80 72 66 61 57 48 44 40 34 25 18 10 358 344 331 332 328
280 284 285 274 273 276 309 298 326 308 269 8 19 345 14 43 28 47 86 78 69 79 87 89 103 109 114 109 106 106 106 99 91 80 70 66 59 52 43 37 31 24 17 7 358 345 327 316 316
288 282 283 283 281 282 277 319 343 329 25 313 154 2 10 32 52 52 73 73 69 75 75 98 113 116 121 116 119 120 123 118 111 97 83 78 66 54 45 37 29 22 15 9 359 348 336 314 305
281 285 282 275 277 274 278 297 327 332 18 73 304 310 341 29 34 38 31 52 59 82 73 100 129 134 140 142 139 144 148 148 138 120 106 90 76 58 46 38 31 25 18 12 4 354 344 329 308
275 281 279 275 272 268 274 303 297 312 310 339 328 347 4 28 31 39 23 15 15 29 82 98 140 146 156 162 164 172 175 175 172 159 139 114 91 60 41 31 25 23 16 15 9 359 352 341 324
278 283 274 275 271 268 276 293 308 317 315 332 346 321 319 344 14 11 359 3 4 96 195 186 162 170 174 182 184 190 195 195 196 196 187 159 90 41 23 16 13 18 20 11 6 360 353 345 338
272 271 268 274 279 284 278 289 306 310 291 307 346 335 323 346 354 349 359 358 343 337 267 235 211 213 208 212 206 206 213 212 215 219 217 213 312 349 359 352 356 6 8 8 4 358 352 343 338
263 267 268 274 280 281 278 288 293 306 292 312 306 305 299 305 318 323 334 339 338 340 293 252 249 249 254 240 238 236 242 232 232 239 237 243 267 303 335 342 333 347 353 1 1 359 356 350 343
265 264 271 270 275 278 277 281 286 289 295 301 310 307 290 292 309 317 322 323 325 325 325 282 256 254 252 249 268 265 269 254 241 239 237 255 265 286 320 334 343 350 352 357 355 355 354 353 350
266 268 270 271 277 274 273 283 280 282 292 301 298 306 305 307 308 312 312 313 312 312 313 299 270 264 254 266 273 265 267 253 250 241 236 249 256 280 310 330 336 346 349 350 352 351 349 349 348
263 268 272 274 275 275 277 275 279 278 287 295 297 294 300 303 297 303 302 306 311 307 306 314 298 280 268 272 276 262 258 255 253 244 235 242 256 277 309 324 336 342 348 346 343 342 345 342 336
268 273 271 273 272 276 278 278 280 281 289 294 295 293 294 298 302 301 299 297 302 304 301 313 305 288 282 279 266 254 257 258 256 254 242 240 248 281 314 325 327 341 347 346 345 346 341 337 330
268 268 270 266 270 272 282 271 264 286 288 291 294 294 294 296 298 296 297 293 298 299 304 308 307 298 294 277 257 251 258 259 253 251 243 251 253 281 317 324 329 329 333 335 338 334 330 328 324
266 268 265 266 270 274 278 255 282 287 289 289 290 291 296 298 301 304 297 291 293 291 300 307 310 305 298 271 258 254 246 259 264 261 268 240 247 295 317 322 325 330 331 331 330 329 324 323 319
263 262 265 269 264 273 271 274 281 286 288 288 291 286 290 288 288 302 302 307 293 294 301 306 305 303 297 273 232 279 270 278 287 314 290 265 274 310 318 324 325 331 330 328 328 326 323 321 315
262 262 263 267 274 275 273 276 271 263 288 285 290 287 283 280 277 288 301 301 291 298 303 307 305 302 300 298 278 278 296 301 321 297 295 290 304 311 320 323 323 326 327 326 326 321 322 321 314
266 265 269 272 272 272 274 279 277 276 287 288 292 294 292 292 286 288 302 309 302 306 312 310 307 299 298 289 283 273 290 305 312 312 317 301 309 318 322 327 328 329 326 326 325 325 325 321 318
261 263 266 272 273 272 273 278 280 280 283 288 267 276 284 296 292 291 305 307 298 306 314 315 309 293 299 297 306 302 311 322 325 322 305 322 329 332 335 334 334 332 332 336 345 340 336 334 335
257 259 266 268 274 265 275 280 278 274 277 283 293 286 295 295 298 296 300 302 293 282 300 314 311 303 310 314 343 1 20 4 354 340 342 343 339 339 341 341 341 342 349 349 351 355 354 346 345
259 263 265 267 271 268 278 277 276 271 253 270 255 290 290 261 279 287 295 302 300 296 306 315 317 326 349 50 20 55 42 13 13 23 5 357 355 354 349 350 352 358 3 15 30 49 60 19 13
257 264 264 265 268 269 266 278 244 285 266 273 293 294 251 283 270 263 276 286 286 310 322 327 338 356 24 38 50 57 46 20 22 12 14 19 10 1 5 5 10 25 46 64 95 106 136 142 111
260 260 260 263 266 265 265 269 242 227 230 292 292 296 271 275 270 298 312 27 88 34 6 356 4 18 42 73 66 45 34 16 24 29 22 20 17 15 15 36 50 77 84 96 114 124 132 132 137
257 251 255 255 254 257 267 270 225 277 254 291 291 273 283 272 312 331 136 122 104 96 80 11 64 78 78 64 52 30 30 19 15 17 15 17 12 25 54 63 92 90 91 109 115 120 117 123 127
253 249 245 249 251 260 264 266 268 232 257 293 256 284 330 342 44 114 118 124 113 103 71 83 100 91 75 59 51 38 26 14 15 13 15 29 33 52 73 91 102 103 118 122 110 101 109 111 131
247 247 251 252 260 265 261 268 254 241 247 289 283 308 6 53 94 109 113 112 108 93 93 107 102 91 72 68 55 42 36 44 36 25 28 37 45 63 80 88 100 121 119 111 97 116 126 111 73
252 250 247 244 247 254 261 261 264 260 282 253 267 188 69 91 99 105 108 106 95 97 107 107 99 91 87 76 62 53 61 55 47 34 42 52 58 50 69 68 90 98 109 103 109 104 96 83 55
249 243 245 252 245 248 257 258 256 264 267 265 238 153 119 111 112 109 112 106 100 103 105 103 96 94 90 80 75 76 63 61 51 43 57 58 61 62 72 79 91 103 110 103 99 93 88 99 82
255 250 243 244 245 243 255 253 263 293 292 234 167 146 128 125 117 115 117 111 106 104 102 100 98 94 93 80 80 71 68 56 54 59 65 72 75 67 85 96 82 80 84 83 99 117 117 104 90